TimeMST,TemperatureF,Dew PointF,Humidity,Sea Level PressureIn,VisibilityMPH,Wind Direction,Wind SpeedMPH,Gust SpeedMPH,PrecipitationIn,Events,Conditions,WindDirDegrees,DateUTC
12:51 AM,33.1,17.1,52,30.12,10.0,North,10.4,-,N/A,,Scattered Clouds,10,2013-01-03 07:51:00
1:51 AM,33.1,17.1,52,30.12,10.0,North,12.7,-,N/A,,Mostly Cloudy,350,2013-01-03 08:51:00
2:51 AM,33.1,14.0,46,30.14,10.0,North,10.4,-,N/A,,Overcast,350,2013-01-03 09:51:00
3:51 AM,33.1,14.0,46,30.11,10.0,North,15.0,-,N/A,,Mostly Cloudy,350,2013-01-03 10:51:00
4:51 AM,33.1,19.9,59,30.12,10.0,North,16.1,-,N/A,,Overcast,10,2013-01-03 11:51:00
5:51 AM,33.1,21.0,61,30.17,10.0,North,12.7,-,N/A,,Overcast,360,2013-01-03 12:51:00
6:51 AM,30.9,25.0,79,30.19,10.0,North,17.3,-,N/A,,Overcast,350,2013-01-03 13:51:00
7:43 AM,30.2,26.6,86,30.25,7.0,NNW,6.9,-,0.00,Snow,Light Snow,340,2013-01-03 14:43:00
7:51 AM,30.9,27.0,85,30.25,1.5,North,9.2,-,0.00,Snow,Light Snow,360,2013-01-03 14:51:00
8:20 AM,30.2,28.4,93,30.26,1.5,North,5.8,-,0.01,Snow,Light Snow,10,2013-01-03 15:20:00
8:51 AM,30.2,28.4,93,30.26,1.5,NE,9.2,-,N/A,Snow,Light Snow,50,2013-01-03 15:51:00
9:04 AM,30.2,28.4,93,30.27,0.5,NNE,10.4,-,0.00,Fog-Snow,Snow,30,2013-01-03 16:04:00
9:22 AM,30.2,28.4,93,30.27,0.2,NNE,9.2,-,0.02,Fog-Snow,Heavy Snow,20,2013-01-03 16:22:00
9:51 AM,30.0,28.0,92,30.28,0.8,North,11.5,-,0.07,Snow,Light Snow,350,2013-01-03 16:51:00
10:08 AM,30.2,28.4,93,30.28,1.2,NNW,10.4,-,0.01,Snow,Light Snow,340,2013-01-03 17:08:00
10:12 AM,30.2,28.4,93,30.28,2.0,North,10.4,-,0.02,Snow,Light Snow,350,2013-01-03 17:12:00
10:29 AM,30.2,28.4,93,30.28,3.0,North,11.5,-,0.02,Snow,Light Snow,350,2013-01-03 17:29:00
10:51 AM,30.9,28.9,92,30.29,5.0,NNW,12.7,-,0.02,,Overcast,340,2013-01-03 17:51:00
11:51 AM,30.9,28.9,92,30.26,5.0,North,11.5,-,N/A,,Overcast,10,2013-01-03 18:51:00
12:15 PM,30.2,28.4,93,30.24,2.0,North,9.2,-,0.00,Snow,Light Snow,10,2013-01-03 19:15:00
12:27 PM,32.0,28.4,87,30.24,1.5,NE,10.4,-,0.00,Snow,Light Snow,50,2013-01-03 19:27:00
12:51 PM,32.0,26.6,80,30.23,1.5,ENE,12.7,-,N/A,Snow,Light Snow,60,2013-01-03 19:51:00
1:03 PM,30.2,28.4,93,30.22,0.8,ENE,10.4,-,0.00,Snow,Light Snow,60,2013-01-03 20:03:00
1:27 PM,30.2,28.4,93,30.22,0.5,ENE,10.4,-,N/A,Fog-Snow,Snow,70,2013-01-03 20:27:00
1:43 PM,30.2,28.4,93,30.22,0.1,ENE,10.4,-,0.03,Fog-Snow,Heavy Snow,60,2013-01-03 20:43:00
1:51 PM,30.9,30.0,96,30.23,0.1,ENE,8.1,-,0.05,Fog-Snow,Heavy Snow,60,2013-01-03 20:51:00
2:08 PM,30.2,30.2,100,30.22,0.5,NNE,10.4,-,0.02,Fog-Snow,Snow,30,2013-01-03 21:08:00
2:45 PM,30.2,28.4,93,30.23,0.8,ENE,8.1,-,0.05,Snow,Light Snow,70,2013-01-03 21:45:00
2:51 PM,30.9,28.9,92,30.24,0.8,NE,8.1,-,0.05,Snow,Light Snow,50,2013-01-03 21:51:00
3:10 PM,30.2,28.4,93,30.24,1.0,NE,10.4,-,N/A,Snow,Light Snow,40,2013-01-03 22:10:00
3:25 PM,30.2,28.4,93,30.25,2.0,NE,10.4,-,0.01,Snow,Light Snow,40,2013-01-03 22:25:00
3:36 PM,30.2,28.4,93,30.25,4.0,NE,12.7,-,0.01,Snow,Light Snow,40,2013-01-03 22:36:00
3:47 PM,30.2,28.4,93,30.25,7.0,NNE,15.0,-,0.01,,Overcast,30,2013-01-03 22:47:00
3:51 PM,30.0,27.0,88,30.26,7.0,NNE,16.1,-,0.01,,Overcast,30,2013-01-03 22:51:00
4:51 PM,30.0,27.0,88,30.26,3.0,North,10.4,-,0.01,Snow,Light Snow,10,2013-01-03 23:51:00
5:51 PM,30.0,27.0,88,30.27,3.0,North,12.7,-,0.02,Snow,Light Snow,10,2013-01-04 00:51:00
6:51 PM,28.9,27.0,92,30.30,3.0,NNE,10.4,-,0.01,Snow,Light Snow,20,2013-01-04 01:51:00
7:51 PM,28.9,27.0,92,30.31,4.0,North,8.1,-,0.00,Snow,Light Snow,350,2013-01-04 02:51:00
8:51 PM,28.9,27.0,92,30.32,10.0,North,5.8,-,0.00,,Overcast,10,2013-01-04 03:51:00
9:51 PM,30.0,25.0,82,30.33,7.0,NNE,6.9,-,0.00,Snow,Light Snow,30,2013-01-04 04:51:00
10:51 PM,28.9,25.0,85,30.34,4.0,ENE,3.5,-,0.00,Snow,Light Snow,60,2013-01-04 05:51:00
11:06 PM,28.4,24.8,86,30.31,7.0,Calm,Calm,-,0.00,Snow,Light Snow,0,2013-01-04 06:06:00
11:51 PM,28.9,25.0,85,30.33,4.0,NNE,6.9,-,0.00,Snow,Light Snow,20,2013-01-04 06:51:00